Regional Weather Roundup
Issued by NWS

Home | Current Version | Previous Version | Text Only | Print | Product List | Glossary On
Versions: 1 2 3 4 5 6 7 8 9 10 11 12 13 14 15 16 17 18 19 20 21 22 23 24 25 26 27 28 29 30 31 32 33 34 35 36 37 38 39 40 41 42 43 44 45 46 47 48 49 50
000
ASUS44 KEWX 250610
RWRTX
SOUTH TEXAS REGIONAL WEATHER ROUNDUP
NATIONAL WEATHER SERVICE AUSTIN/SAN ANTONIO TX
100 AM CDT SAT OCT 25 2014

NOTE: "FAIR" INDICATED FEW OR NO CLOUDS BELOW 12,000 FEET WITH NO
SIGNIFICANT WEATHER AND/OR OBSTRUCTIONS TO VISIBILITY.

* - THESE STATIONS ARE NOT NWS OR FAA STATIONS...AND ARE NOT SUBJECT
    TO NWS AND FAA QUALITY CONTROL.

TXZ171-172-183>190-250700-
TEXAS HILL COUNTRY AND EDWARDS PLATEAU

CITY           SKY/WX    TMP DP  RH WIND       PRES   REMARKS
JUNCTION       CLEAR     64  55  72 CALM      30.17S
6HR MIN TEMP:  64; 6HR MAX TEMP:  81;

*LLANO         NOT AVBL
BURNET         CLEAR     65  58  78 CALM      30.18S
6HR MIN TEMP:  65; 6HR MAX TEMP:  79;

*HORSESHOE BAY CLEAR     70  57  63 S5        30.15S
6HR MIN TEMP:  69; 6HR MAX TEMP:  76;

*KERRVILLE     CLEAR     59  56  89 CALM      30.18S
6HR MIN TEMP:  59; 6HR MAX TEMP:  76;

*FREDERICKSBRG CLEAR     58  56  91 CALM      30.18S
6HR MIN TEMP:  58; 6HR MAX TEMP:  76;

*ROCKSPRINGS   CLEAR     64  57  77 SE6       30.21S
*BOERNE STAGE  CLEAR     59  54  82 CALM      30.18S
*CASTROVILLE   CLEAR     68  55  62 E3        30.17S
HONDO          CLEAR     60  54  80 NE3       30.17R
6HR MIN TEMP:  60; 6HR MAX TEMP:  77;

*UVALDE        CLEAR     68  59  73 SE5       30.15S
6HR MIN TEMP:  68; 6HR MAX TEMP:  81;

DEL RIO        CLEAR     68  62  81 E6        30.12F
6HR MIN TEMP:  68; 6HR MAX TEMP:  81;

LAUGHLIN AFB   CLEAR     66  62  86 E1        30.13F
6HR MIN TEMP:  66; 6HR MAX TEMP:  80;

CARRIZO SPRGS  CLEAR     70  57  64 S6        30.13R
$$

TXZ173-191>194-202-209-217>225-228-250700-
CENTRAL AND SOUTH CENTRAL TEXAS

CITY           SKY/WX    TMP DP  RH WIND       PRES   REMARKS
GEORGETOWN     CLEAR     66  57  72 S3        30.15S
6HR MIN TEMP:  64; 6HR MAX TEMP:  79;

AUSTIN/BERGSTM CLEAR     59  57  93 CALM      30.15R
6HR MIN TEMP:  58; 6HR MAX TEMP:  77;

AUSTIN/MABRY   CLEAR     68  59  73 CALM      30.16R
6HR MIN TEMP:  68; 6HR MAX TEMP:  79;

*AUSTIN/EXEC   PTCLDY    64  57  77 CALM      30.15S
*LAGO VISTA    CLEAR     69  58  67 S5        30.16S
6HR MIN TEMP:  69; 6HR MAX TEMP:  78;

SAN MARCOS     CLEAR     64  54  68 CALM      30.16S
6HR MIN TEMP:  63; 6HR MAX TEMP:  79;

NEW BRAUNFELS  CLEAR     63  57  81 CALM      30.14S
6HR MIN TEMP:  63; 6HR MAX TEMP:  81;

RANDOLPH AFB   CLEAR     67  56  69 SE1       30.15F
6HR MIN TEMP:  66; 6HR MAX TEMP:  77;

PT SAN ANTONIO CLEAR     69  58  67 SE6       30.14S
6HR MIN TEMP:  69; 6HR MAX TEMP:  79;

SAN ANTONIO    CLEAR     70  57  63 SE3       30.16S
6HR MIN TEMP:  68; 6HR MAX TEMP:  80;

STINSON FIELD  CLEAR     68  58  70 CALM      30.14R
6HR MIN TEMP:  67; 6HR MAX TEMP:  81;

*PLEASANTON    CLEAR     67  58  72 SE3       30.15S
6HR MIN TEMP:  67; 6HR MAX TEMP:  81;

*LA GRANGE     CLEAR     66  59  77 CALM      30.13R
6HR MIN TEMP:  66; 6HR MAX TEMP:  74;

*GIDDINGS      CLEAR     64  57  78 CALM      30.18S
6HR MIN TEMP:  63; 6HR MAX TEMP:  75;

*GONZALES      CLEAR     66  59  80 S5        30.14S
6HR MIN TEMP:  66; 6HR MAX TEMP:  80;

$$

TXZ163>164-176>182-195>201-210>213-226-227-235-250700-
SOUTHEAST TEXAS

CITY           SKY/WX    TMP DP  RH WIND       PRES   REMARKS
COLLEGE STN    CLEAR     66  57  72 SE3       30.13F
6HR MIN TEMP:  65; 6HR MAX TEMP:  76;

*BRYAN         CLEAR     64  57  78 S7        30.15S
6HR MIN TEMP:  62; 6HR MAX TEMP:  72;

*CALDWELL      CLEAR     63  59  88 CALM      30.17S
*CROCKETT      CLEAR     59  59 100 CALM      30.17S
*BRENHAM       CLEAR     65  58  79 CALM      30.15S
6HR MIN TEMP:  64; 6HR MAX TEMP:  77;

HUNTSVILLE     CLEAR     63  56  78 S3        30.14S
6HR MIN TEMP:  63; 6HR MAX TEMP:  73;

CONROE         CLEAR     56  54  93 CALM      30.14F
6HR MIN TEMP:  56; 6HR MAX TEMP:  67;

HOUSTON BUSH   CLEAR     60  59  96 CALM      30.13F
6HR MIN TEMP:  60; 6HR MAX TEMP:  71;

HOUSTON HOBBY  PTCLDY    62  57  83 CALM      30.13F
6HR MIN TEMP:  62; 6HR MAX TEMP:  74;

*HOUSTON SW AP CLEAR     52  52 100 CALM      30.14F FOG
6HR MIN TEMP:  52; 6HR MAX TEMP:  67;

PEARLAND       CLEAR     61  57  87 CALM      30.15F
6HR MIN TEMP:  61; 6HR MAX TEMP:  73;

HOUSTON HOOKS  CLEAR     59  58  96 CALM      30.13F FOG
6HR MIN TEMP:  58; 6HR MAX TEMP:  71;

ELLINGTON FLD  CLEAR     64  57  77 CALM      30.14F
SUGAR LAND     CLEAR     60  58  92 CALM      30.14S
6HR MIN TEMP:  60; 6HR MAX TEMP:  68; 6HR PCP: TRACE;

*HOUSTON EXEC  CLEAR     61 N/A N/A S3        30.15F
*CLEVELAND MUN NOT AVBL
*WHARTON       CLEAR     57  56  94 CALM      30.15S
6HR MIN TEMP:  56; 6HR MAX TEMP:  74;

*COLUMBUS      FAIR      59  56  89 CALM      30.14S
6HR MIN TEMP:  59; 6HR MAX TEMP:  74;

$$

TXZ214>216-236>238-250700-
THE UPPER TEXAS COAST

CITY           SKY/WX    TMP DP  RH WIND       PRES   REMARKS
*ORANGE        CLEAR    N/A N/A N/A CALM      30.15F
PORT ARTHUR    CLEAR     54  52  93 CALM      30.13F
6HR MIN TEMP:  54; 6HR MAX TEMP:  66;

GALVESTON      CLEAR     69  59  70 N3        30.14F
6HR MIN TEMP:  67; 6HR MAX TEMP:  73;

ANGLETON       CLEAR     56  55  97 CALM      30.14S
6HR MIN TEMP:  56; 6HR MAX TEMP:  66;

*BAY CITY        N/A     60  59  97 CALM      30.14S
PALACIOS       CLEAR     65  60  84 E5        30.14S
6HR MIN TEMP:  64; 6HR MAX TEMP:  72;

$$

TXZ229>234-239>247-250700-
TEXAS COASTAL BEND AND RIO GRANDE PLAINS

CITY           SKY/WX    TMP DP  RH WIND       PRES   REMARKS
VICTORIA       CLEAR     64  58  80 CALM      30.15S
6HR MIN TEMP:  64; 6HR MAX TEMP:  76;

*BEEVILLE      CLEAR     67  62  82 CALM      30.14S
6HR MIN TEMP:  64; 6HR MAX TEMP:  80;

ROCKPORT       CLEAR     71  64  78 SE6       30.13R
6HR MIN TEMP:  71; 6HR MAX TEMP:  75;

*PORT ARANSAS  CLEAR     74  63  67 SE6       30.13S
6HR MIN TEMP:  74; 6HR MAX TEMP:  75;

*PORT LAVACA   CLEAR     66  61  85 SE3       30.14S
6HR MIN TEMP:  66; 6HR MAX TEMP:  74;

*INGLESIDE     CLEAR     70  62  75 CALM      30.13S
CORPUS CHRISTI CLEAR     66  62  87 SW3       30.13F
6HR MIN TEMP:  66; 6HR MAX TEMP:  76;

CORPUS NAS     CLEAR     70  63  78 SE5       30.12F
6HR MIN TEMP:  69; 6HR MAX TEMP:  74;

*ROBSTOWN      NOT AVBL
ALICE          CLEAR     66  60  81 SW3       30.14S
6HR MIN TEMP:  63; 6HR MAX TEMP:  80;

KINGSVILLE NAS CLEAR     64  62  93 CALM      30.13F
6HR MIN TEMP:  64; 6HR MAX TEMP:  77;

COTULLA        CLEAR     71  58  63 S5        30.14S
6HR MIN TEMP:  71; 6HR MAX TEMP:  86;

*FAITH RANCH   CLEAR     73  59  60 SE8       30.14S
LAREDO         CLEAR     72  60  65 SE7       30.16F
6HR MIN TEMP:  72; 6HR MAX TEMP:  86;

$$

TXZ248>255-250700-
DEEP SOUTH TEXAS

CITY           SKY/WX    TMP DP  RH WIND       PRES   REMARKS
BROWNSVILLE    CLEAR     67  65  93 CALM      30.13F
6HR MIN TEMP:  67; 6HR MAX TEMP:  76;

PORT ISABEL    CLEAR     68  63  84 CALM      30.13S
6HR MIN TEMP:  67; 6HR MAX TEMP:  75;

*SOUTH PADRE   CLEAR    N/A N/A N/A E6        30.12F
HARLINGEN      CLEAR     67  64  90 CALM      30.13S
6HR MIN TEMP:  66; 6HR MAX TEMP:  74;




USA.gov is the U.S. government's official web portal to all federal, state and local government web resources and services.